[[{"header":{"parameterUnit":"m.s-1","parameterCategory":1,"la1":30.2991,"la2":30.254,"lo1":-89.0895,"lo2":-89.0444,"dy":0.0017,"dx":0.0017,"nx":28,"ny":28,"refTime":"2024-10-18T03:00:00:Z","depth":0,"parameterNumber":2,"parameterNumberName":"U-component_of_WINDS"},"data":[0,0,0,0,0,0,0,0,0,0,0,0,0,0,0,0,0,0,0,0,0,0,0,0,0,0,0,0,0,0,0,0,0,0,0,0,0,0,0,0,0,0,0,0,0,0,0,0,0,0,0,0,0,0,0,0,0,0,-2.5931,-2.5931,0,-2.6008,-2.6009,-2.601,-2.5927,-2.5924,-2.5921,-2.5918,-2.5999,-2.6004,-2.6009,0,0,0,0,0,0,0,0,0,0,0,0,0,-2.5711,-2.5715,-2.5931,-2.5932,-2.5933,-2.6008,-2.6009,-2.601,-2.5928,-2.5924,-2.592,-2.5916,-2.5997,-2.6003,-2.6009,0,0,0,0,0,0,0,0,0,0,0,0,0,-2.5799,-2.5717,-2.593,-2.59,-2.5898,-2.6008,-2.6009,-2.6011,-2.5929,-2.5924,-2.5919,-2.5914,-2.5995,-2.6002,-2.601,-2.6153,0,0,-2.6033,-2.6037,0,0,0,0,0,0,0,0,-2.5794,-2.5807,-2.5904,-2.5903,-2.5901,-2.5953,-2.5961,-2.6059,-2.593,-2.5917,-2.5918,-2.5912,-2.5987,-2.5995,-2.6021,-2.6157,-2.616,-2.6034,-2.6039,-2.6042,-2.6044,0,0,0,0,0,0,0,-2.5788,-2.5804,-2.5961,-2.5905,-2.5903,-2.5883,-2.589,-2.5979,-2.5978,-2.5918,-2.5912,-2.5922,-2.5986,-2.6013,-2.6022,-2.6162,-2.6034,-2.6041,-2.6045,-2.6048,-2.642,-2.6425,0,0,0,0,0,0,-2.5785,-2.5799,-2.5959,-2.5964,-2.5835,-2.5891,-2.5899,-2.5941,-2.5977,-2.5978,-2.5926,-2.5918,-2.6003,-2.6013,-2.6024,-2.6195,-2.6042,-2.6049,-2.6054,-2.6415,-2.6421,-2.6427,0,0,0,0,0,0,-2.5781,-2.58,-2.5956,-2.588,-2.5898,-2.59,-2.5948,-2.5945,-2.5973,-2.5983,-2.5983,-2.5955,-2.5999,-2.6014,-2.6122,-2.6197,-2.6053,-2.606,-2.6409,-2.6417,-2.6424,-2.6538,0,0,0,0,0,0,-2.5775,-2.5799,-2.5854,-2.5882,-2.5902,-2.6052,-2.5952,-2.595,-2.5986,-2.5976,-2.601,-2.6011,-2.5997,-2.6111,-2.613,-2.6205,-2.6066,-2.6402,-2.6412,-2.6422,-2.6528,-2.6549,-2.6567,0,0,0,0,0,-2.5768,-2.5883,-2.5857,-2.5877,-2.5971,-2.6057,-2.6069,-2.6049,-2.5993,-2.6048,-2.6054,-2.601,-2.6185,-2.6123,-2.6143,-2.6222,-2.6397,-2.6409,-2.6421,-2.6519,-2.6545,-2.6567,0,0,0,0,0,0,-2.5865,-2.5886,-2.5858,-2.5986,-2.602,-2.6043,-2.6111,-2.6077,-2.6129,-2.6117,-2.6091,-2.6099,-2.6215,-2.6228,-2.6158,-2.6362,-2.6282,-2.6298,-2.635,-2.6374,-2.6394,-2.6389,-2.6072,0,0,0,0,0,-2.5901,-2.5969,-2.5984,-2.6095,-2.6114,-2.611,-2.6147,-2.6129,-2.6163,-2.6178,-2.6192,-2.6228,-2.6291,-2.6333,-2.6391,-2.6529,-2.6535,-2.6593,-2.6612,-2.6628,-2.6644,-2.6718,-2.6744,-2.6466,-2.6466,-2.6465,0,0,-2.5977,-2.5997,-2.6041,-2.6115,-2.614,-2.6211,-2.6123,-2.6202,-2.6255,-2.619,-2.6293,-2.6305,-2.6343,-2.6467,-2.6522,-2.6482,-2.6722,-2.6644,-2.6656,-2.6663,-2.6733,-2.6759,-2.6783,-2.6474,-2.6472,-2.6471,0,0,-2.6151,-2.6173,-2.6269,-2.6295,-2.6333,-2.6329,-2.6352,-2.638,-2.6385,-2.6488,-2.6441,-2.6503,-2.6612,-2.6642,-2.6671,-2.6856,-2.6818,-2.6876,-2.6979,-2.7052,-2.7074,-2.7093,-2.7161,-2.7185,-2.689,-2.689,-2.6891,0,-2.6241,-2.6346,-2.6322,-2.6405,-2.6439,-2.6382,-2.6479,-2.6506,-2.6561,-2.6587,-2.654,-2.6676,-2.6698,-2.6828,-2.6873,-2.6898,-2.6924,-2.6873,-2.7073,-2.7092,-2.711,-2.7174,-2.7199,-2.6897,-2.6897,-2.6896,-2.6895,0,-2.6455,-2.6529,-2.6602,-2.6657,-2.6698,-2.6788,-2.6777,-2.6823,-2.6801,-2.6802,-2.6908,-2.6932,-2.6994,-2.7023,-2.7003,-2.7151,-2.7125,-2.7077,-2.6995,-2.7144,-2.7203,-2.7227,-2.6907,-2.6905,-2.6903,-2.6901,0,0,-2.6695,-2.6735,-2.6762,-2.6786,-2.6824,-2.688,-2.6967,-2.7028,-2.7068,-2.7107,-2.718,-2.7273,-2.7229,-2.7262,-2.7244,-2.7307,-2.7454,-2.7251,-2.7251,-2.7289,-2.762,-2.7658,-2.7686,-2.7428,-2.7432,-2.7436,-2.7617,0,-2.6872,-2.7022,-2.7003,-2.7147,-2.7216,-2.7162,-2.7238,-2.7269,-2.7272,-2.7331,-2.7334,-2.7401,-2.7336,-2.7356,-2.7417,-2.7423,-2.752,-2.741,-2.7496,-2.75,-2.749,-2.7717,-2.7757,-2.7927,-2.764,-2.7644,-2.7647,0,-2.7099,-2.7147,-2.7298,-2.7325,-2.7353,-2.7421,-2.7475,-2.7532,-2.7566,-2.7564,-2.7601,-2.7571,-2.7658,-2.7574,-2.7694,-2.762,-2.7653,-2.7662,-2.7668,-2.7677,-2.7584,-2.7734,-2.7981,-2.8007,-2.7683,-2.768,-2.7678,0,-2.7261,-2.7363,-2.7467,-2.7489,-2.7522,-2.7572,-2.7588,-2.7617,-2.7655,-2.7702,-2.7727,-2.7784,-2.7815,-2.786,-2.7847,-2.7786,-2.7971,-2.7885,-2.7972,-2.7973,-2.8015,-2.8013,-2.8273,-2.8034,-2.8034,-2.8033,-2.8033,0,-2.7461,-2.7557,-2.754,-2.7604,-2.7709,-2.7685,-2.779,-2.7799,-2.7826,-2.7891,-2.7848,-2.791,-2.7888,-2.7949,-2.7939,-2.8041,-2.8055,-2.8056,-2.8053,-2.8062,-2.8062,-2.8085,-2.8073,-2.804,-2.8039,-2.8037,-2.8036,0,-2.7661,-2.7653,-2.7763,-2.7786,-2.7793,-2.787,-2.7889,-2.795,-2.7949,-2.8032,-2.805,-2.8049,-2.8119,-2.811,-2.8187,-2.818,-2.8308,-2.8289,-2.8297,-2.8293,-2.8381,-2.8374,-2.8667,-2.8705,-2.844,-2.8442,-2.8444,0,-2.7791,-2.7862,-2.7892,-2.7933,-2.7953,-2.8018,-2.8057,-2.8035,-2.8077,-2.8121,-2.8176,-2.8242,-2.8294,-2.8407,-2.8414,-2.8473,-2.8457,-2.8555,-2.8466,-2.8472,-2.8461,-2.8457,-2.8465,-2.8574,-2.8577,-2.8579,-2.8581,0,-2.8022,-2.8014,-2.8071,-2.8127,-2.8174,-2.8217,-2.8255,-2.8291,-2.8273,-2.8322,-2.8392,-2.8432,-2.8511,-2.8577,-2.8633,-2.865,-2.8614,-2.8609,-2.8633,-2.8643,-2.8646,-2.8647,-2.8347,-2.8603,-2.8601,-2.8599,-2.8598,-2.8597,-2.8192,-2.8253,-2.8284,-2.8349,-2.8375,-2.8412,-2.847,-2.8476,-2.8535,-2.8597,-2.858,-2.8661,-2.8693,-2.8764,-2.8786,-2.8849,-2.8813,-2.8847,-2.8856,-2.8865,-2.8877,-2.8634,-2.8859,-2.8858,-2.8858,-2.8857,-2.8857,0,-2.8422,-2.8439,-2.8499,-2.8554,-2.8605,-2.8564,-2.8605,-2.8651,-2.8722,-2.8754,-2.8806,-2.8887,-2.8951,-2.8962,-2.9022,-2.9071,-2.9056,-2.9088,-2.9085,-2.909,-2.8904,-2.8879,-2.9099,-2.9099,-2.9099,-2.9099,-2.9099,-2.9098,-2.8549,-2.8651,-2.8647,-2.8762,-2.8778,-2.8856,-2.8883,-2.8917,-2.8943,-2.9036,-2.9088,-2.9095,-2.9119,-2.9181,-2.9238,-2.9239,-2.9265,-2.9304,-2.9299,-2.9127,-2.9102,-2.9079,-2.9055,-2.9309,-2.9309,-2.9479,-2.9481,-2.9482]},{"header":{"parameterUnit":"m.s-1","parameterCategory":1,"la1":30.2991,"la2":30.254,"lo1":-89.0895,"lo2":-89.0444,"dy":0.0017,"dx":0.0017,"nx":28,"ny":28,"refTime":"2024-10-18T03:00:00:Z","depth":0,"parameterNumber":3,"parameterNumberName":"V-component_of_WINDS"},"data":[0,0,0,0,0,0,0,0,0,0,0,0,0,0,0,0,0,0,0,0,0,0,0,0,0,0,0,0,0,0,0,0,0,0,0,0,0,0,0,0,0,0,0,0,0,0,0,0,0,0,0,0,0,0,0,0,0,0,-3.4345,-3.4345,0,-3.4394,-3.4394,-3.4395,-3.4358,-3.4357,-3.4355,-3.4353,-3.44,-3.4402,-3.4405,0,0,0,0,0,0,0,0,0,0,0,0,0,-3.4214,-3.4217,-3.4344,-3.4345,-3.4346,-3.4394,-3.4394,-3.4395,-3.4358,-3.4356,-3.4355,-3.4353,-3.4399,-3.4402,-3.4405,0,0,0,0,0,0,0,0,0,0,0,0,0,-3.4268,-3.4218,-3.4344,-3.4333,-3.4333,-3.4393,-3.4394,-3.4395,-3.4359,-3.4356,-3.4354,-3.4352,-3.4398,-3.4402,-3.4406,-3.4478,0,0,-3.4418,-3.442,0,0,0,0,0,0,0,0,-3.4265,-3.4273,-3.4334,-3.4334,-3.4334,-3.4367,-3.4365,-3.4423,-3.4359,-3.4349,-3.4353,-3.4351,-3.4391,-3.4395,-3.4409,-3.4481,-3.4483,-3.4419,-3.4421,-3.4423,-3.4424,0,0,0,0,0,0,0,-3.4261,-3.427,-3.4364,-3.4335,-3.4335,-3.4324,-3.4329,-3.4376,-3.4382,-3.435,-3.4347,-3.4354,-3.439,-3.4406,-3.441,-3.4483,-3.4418,-3.4422,-3.4425,-3.4426,-3.4614,-3.4617,0,0,0,0,0,0,-3.4259,-3.4268,-3.4362,-3.4365,-3.4293,-3.4329,-3.4334,-3.4359,-3.4382,-3.4383,-3.4356,-3.4352,-3.44,-3.4406,-3.4412,-3.4497,-3.4423,-3.4427,-3.4429,-3.4612,-3.4615,-3.4618,0,0,0,0,0,0,-3.4257,-3.4268,-3.436,-3.4316,-3.4327,-3.4334,-3.4361,-3.4361,-3.4377,-3.4386,-3.4387,-3.4371,-3.4398,-3.4406,-3.4462,-3.4498,-3.4428,-3.4432,-3.4609,-3.4613,-3.4616,-3.4668,0,0,0,0,0,0,-3.4253,-3.4267,-3.4296,-3.4317,-3.4329,-3.4411,-3.4364,-3.4364,-3.4384,-3.438,-3.4401,-3.4402,-3.4397,-3.4456,-3.4466,-3.4502,-3.4435,-3.4605,-3.461,-3.4615,-3.4663,-3.4673,-3.4682,0,0,0,0,0,-3.4249,-3.4308,-3.4298,-3.4309,-3.4366,-3.4413,-3.442,-3.4415,-3.4388,-3.4416,-3.4421,-3.4401,-3.4493,-3.4462,-3.4473,-3.4511,-3.4603,-3.4609,-3.4615,-3.4659,-3.4671,-3.4682,0,0,0,0,0,0,-3.4291,-3.4311,-3.4299,-3.4368,-3.4389,-3.4407,-3.4442,-3.4428,-3.4457,-3.4451,-3.4441,-3.4446,-3.4505,-3.4514,-3.4479,-3.4581,-3.4543,-3.4552,-3.4573,-3.4585,-3.4594,-3.459,-3.4439,0,0,0,0,0,-3.4308,-3.4347,-3.4362,-3.4421,-3.4432,-3.4436,-3.4456,-3.445,-3.4471,-3.448,-3.449,-3.451,-3.4543,-3.4565,-3.4596,-3.4665,-3.4668,-3.4696,-3.4706,-3.4713,-3.472,-3.4755,-3.4767,-3.4637,-3.4636,-3.4636,0,0,-3.4344,-3.436,-3.4385,-3.443,-3.4445,-3.4484,-3.4443,-3.4486,-3.4514,-3.4486,-3.4539,-3.4547,-3.4569,-3.4631,-3.4659,-3.464,-3.4757,-3.4721,-3.4727,-3.4729,-3.4762,-3.4775,-3.4786,-3.464,-3.464,-3.4639,0,0,-3.4429,-3.4446,-3.4496,-3.4513,-3.4538,-3.454,-3.4552,-3.4572,-3.4576,-3.463,-3.4609,-3.4641,-3.4699,-3.4715,-3.4731,-3.4821,-3.4803,-3.4831,-3.488,-3.4914,-3.4924,-3.4933,-3.4964,-3.4975,-3.4838,-3.4839,-3.4839,0,-3.447,-3.4529,-3.4524,-3.4568,-3.4587,-3.4565,-3.4614,-3.463,-3.4664,-3.4677,-3.4656,-3.4727,-3.474,-3.4805,-3.4827,-3.4841,-3.4853,-3.4828,-3.4924,-3.4933,-3.4941,-3.497,-3.4981,-3.4842,-3.4841,-3.4841,-3.4841,0,-3.4577,-3.4618,-3.4655,-3.4689,-3.4713,-3.4759,-3.4759,-3.4784,-3.4776,-3.4779,-3.4833,-3.4848,-3.4881,-3.4896,-3.4889,-3.496,-3.4947,-3.4925,-3.4886,-3.4957,-3.4983,-3.4995,-3.4846,-3.4845,-3.4844,-3.4843,0,0,-3.4689,-3.472,-3.4733,-3.4748,-3.4773,-3.4803,-3.4848,-3.4882,-3.4902,-3.4926,-3.4961,-3.5011,-3.499,-3.5008,-3.5002,-3.5032,-3.51,-3.5006,-3.5006,-3.5022,-3.5178,-3.5193,-3.5206,-3.5089,-3.5091,-3.5093,-3.5175,0,-3.4774,-3.4854,-3.485,-3.4924,-3.496,-3.4939,-3.4978,-3.4997,-3.5001,-3.5031,-3.5035,-3.507,-3.5041,-3.5052,-3.5081,-3.5086,-3.5131,-3.508,-3.512,-3.5122,-3.5114,-3.522,-3.5236,-3.5313,-3.5186,-3.5188,-3.5189,0,-3.4884,-3.4912,-3.4989,-3.5008,-3.5023,-3.5059,-3.5088,-3.5118,-3.5138,-3.5139,-3.5159,-3.5147,-3.5191,-3.5152,-3.5211,-3.5176,-3.5192,-3.5197,-3.52,-3.5202,-3.5158,-3.5223,-3.5338,-3.5349,-3.5206,-3.5204,-3.5203,0,-3.4955,-3.5013,-3.5066,-3.5079,-3.5103,-3.5128,-3.5139,-3.5157,-3.5177,-3.5202,-3.5215,-3.5245,-3.5261,-3.5283,-3.528,-3.5252,-3.5338,-3.53,-3.5339,-3.5339,-3.5356,-3.5355,-3.5473,-3.537,-3.537,-3.537,-3.5369,0,-3.5049,-3.5097,-3.5098,-3.5131,-3.5183,-3.5178,-3.5229,-3.5237,-3.5253,-3.5286,-3.527,-3.53,-3.5294,-3.5324,-3.5321,-3.5369,-3.5377,-3.5377,-3.5375,-3.5377,-3.5377,-3.5387,-3.538,-3.5373,-3.5372,-3.5371,-3.5371,0,-3.5138,-3.5141,-3.5197,-3.5216,-3.5221,-3.5259,-3.5273,-3.5303,-3.5306,-3.5348,-3.5357,-3.5361,-3.5396,-3.5395,-3.5433,-3.5431,-3.5489,-3.5482,-3.5483,-3.5481,-3.5518,-3.5514,-3.5646,-3.5662,-3.555,-3.5551,-3.5552,0,-3.5197,-3.5233,-3.5255,-3.5276,-3.5289,-3.5323,-3.5344,-3.534,-3.5361,-3.5387,-3.5413,-3.5446,-3.5472,-3.5528,-3.5533,-3.5562,-3.5555,-3.5599,-3.5559,-3.5559,-3.5553,-3.555,-3.5553,-3.5606,-3.5607,-3.5608,-3.5609,0,-3.53,-3.53,-3.533,-3.5362,-3.5387,-3.5411,-3.5433,-3.5451,-3.5448,-3.5473,-3.5509,-3.5529,-3.5569,-3.5601,-3.5629,-3.5638,-3.5623,-3.5622,-3.5632,-3.5634,-3.5631,-3.5631,-3.5502,-3.5618,-3.5618,-3.5617,-3.5616,-3.5616,-3.5374,-3.5405,-3.5425,-3.5459,-3.5476,-3.5497,-3.5525,-3.5532,-3.5562,-3.5595,-3.559,-3.5629,-3.5647,-3.5683,-3.5695,-3.5724,-3.5709,-3.5724,-3.5727,-3.5731,-3.5734,-3.5629,-3.573,-3.5729,-3.5729,-3.5729,-3.5729,0,-3.5475,-3.5487,-3.5519,-3.5551,-3.5577,-3.5562,-3.5586,-3.5608,-3.5643,-3.5662,-3.5688,-3.5728,-3.5759,-3.5767,-3.5797,-3.5818,-3.5812,-3.5826,-3.5823,-3.5825,-3.5747,-3.5735,-3.5831,-3.5831,-3.5831,-3.5831,-3.5831,-3.5831,-3.553,-3.5581,-3.5583,-3.5641,-3.5652,-3.5691,-3.5705,-3.5724,-3.5739,-3.5784,-3.581,-3.5816,-3.583,-3.586,-3.5888,-3.5889,-3.59,-3.5916,-3.5915,-3.5841,-3.5831,-3.5821,-3.5809,-3.5919,-3.5919,-3.599,-3.5991,-3.5991]}]]